Theta_e
313 313 313 314 314 314 313 313 312 312 311 310 310 309 309 309 308 308 308 308 309 310 310 311 311 312 312 312 313 313 314 314 314 313 315 319 320 318 318 317 317 317 318 317 318 327 334 333 332 334 341 346 346 348 348 349 351 349 350 350 350 351 350 348 345 341 338 339 346 350 351 351 350 351 353 352 353 353 353 352 352 350 350 350 346 345 347 347
314 314 314 314 314 314 314 314 314 314 313 312 312 311 310 309 309 309 309 309 309 309 310 310 310 311 311 311 312 313 314 314 314 315 319 320 319 319 319 318 317 317 317 316 316 322 334 336 337 340 345 348 346 348 348 350 351 350 350 351 351 352 352 349 346 344 343 343 347 350 351 351 352 353 353 351 353 353 351 352 352 352 351 349 346 344 346 348
314 314 314 315 314 315 315 315 315 314 314 314 313 313 312 311 310 310 310 310 310 309 309 309 310 310 310 311 312 312 313 313 314 317 319 319 319 319 319 319 317 317 317 317 316 318 330 336 338 344 347 348 347 347 348 350 352 351 352 352 353 352 352 352 349 349 347 344 346 350 351 352 353 353 353 352 353 352 351 353 352 353 352 350 349 346 346 348
314 314 314 314 314 315 315 315 315 315 314 314 314 314 313 313 312 312 311 310 310 310 310 309 309 310 309 310 311 312 312 313 316 319 320 320 322 321 320 321 319 318 317 317 317 317 328 335 339 345 346 348 350 348 347 349 352 353 352 353 352 350 350 351 350 349 345 342 345 350 350 351 353 353 353 353 352 351 351 354 352 352 352 350 350 348 347 348
313 313 313 313 314 314 314 314 314 314 314 314 314 314 314 314 313 313 312 311 311 311 311 310 309 310 309 309 310 311 311 315 318 320 322 323 321 321 320 321 321 320 317 317 318 321 330 338 343 345 345 348 351 350 349 350 352 353 353 354 353 350 350 350 349 347 343 343 347 350 350 351 353 352 353 353 351 352 352 353 352 352 349 348 349 347 346 347
313 312 312 312 312 312 312 312 313 313 313 313 313 314 314 315 315 314 314 313 312 311 311 310 310 310 309 309 309 310 312 316 320 322 324 322 319 319 319 319 321 322 318 317 322 329 337 343 345 346 345 348 350 351 351 352 352 352 353 354 355 355 354 353 351 347 344 346 349 349 350 351 353 352 353 353 350 351 350 351 352 352 349 347 347 346 345 346
311 311 311 311 311 311 311 311 311 311 311 312 312 313 314 315 315 315 315 314 313 312 311 311 311 310 310 309 308 310 311 316 320 322 322 321 319 320 319 318 321 322 318 318 326 334 341 344 346 346 346 347 349 351 352 353 354 352 352 353 353 353 352 352 350 347 343 344 347 348 350 351 352 351 352 353 352 350 348 349 351 351 350 348 346 345 344 343
309 309 310 310 310 309 309 309 309 310 310 310 311 311 312 314 315 316 316 315 314 313 312 311 311 311 310 309 309 309 311 316 320 320 319 320 318 319 319 319 321 320 317 319 325 332 339 345 346 346 346 346 349 351 351 351 353 352 352 352 352 350 349 349 347 346 344 343 345 348 350 350 352 351 352 352 353 350 348 348 350 350 350 348 346 344 344 343
309 309 309 309 309 309 309 309 309 309 310 311 311 311 312 314 315 316 316 316 315 314 313 312 311 311 310 309 308 308 312 317 319 318 318 319 318 320 319 320 321 320 318 322 324 328 338 345 346 345 346 347 348 349 351 350 349 350 352 353 351 349 348 346 346 345 344 342 342 346 348 349 352 351 350 352 352 350 349 348 349 349 349 349 346 345 344 343
309 308 309 309 309 309 310 310 310 310 311 311 311 311 312 314 316 316 316 316 315 314 313 312 311 311 310 309 309 310 315 319 319 319 319 319 319 320 320 321 321 320 320 323 325 329 334 338 343 344 345 348 348 347 350 348 346 347 348 349 347 347 346 344 344 343 342 341 341 342 343 347 352 349 349 351 351 350 349 350 350 350 350 349 347 345 344 343
308 308 308 309 309 309 310 310 311 312 312 312 312 312 313 315 316 316 316 315 314 314 313 312 312 311 310 309 310 312 316 318 318 319 319 320 320 321 320 320 321 320 320 321 323 327 326 329 340 344 342 345 346 345 347 347 345 344 342 341 340 339 338 337 337 337 338 337 338 340 341 346 351 348 349 350 350 350 349 351 352 351 350 350 349 347 344 344
306 306 306 307 307 308 308 309 310 312 313 313 313 313 314 315 316 316 315 314 313 313 312 312 311 311 310 309 310 313 315 315 317 318 320 320 320 320 319 319 321 319 318 320 321 323 324 326 336 342 338 338 340 337 339 341 342 341 337 336 334 334 333 333 331 330 332 331 334 338 338 343 347 348 350 349 349 350 350 352 353 352 352 351 351 349 346 344
303 304 304 304 304 305 305 307 308 311 312 313 313 313 315 315 315 313 313 314 314 314 313 312 311 310 309 310 312 314 314 314 316 319 320 319 318 319 319 319 319 318 317 318 320 323 326 325 330 339 336 333 336 332 332 335 335 336 333 333 333 332 332 331 330 328 328 328 333 336 331 337 346 347 349 349 350 352 351 353 353 354 353 352 352 351 349 346
302 303 302 303 303 303 303 304 305 308 311 312 313 314 315 314 313 313 314 316 317 317 316 313 311 310 309 311 314 315 314 313 314 316 318 319 318 318 318 319 317 317 320 321 322 324 327 327 329 336 334 331 333 330 331 331 330 332 333 332 331 329 330 330 327 327 329 330 335 336 327 332 342 344 349 349 350 352 352 354 354 353 354 353 353 351 351 348
302 302 302 302 302 302 303 303 304 305 308 311 312 313 314 312 312 314 316 317 318 318 318 315 311 309 309 311 313 316 315 313 313 315 317 318 319 318 318 320 318 318 321 324 325 325 328 331 334 335 332 330 330 328 328 327 326 329 330 331 330 326 329 331 328 327 329 332 336 335 328 332 338 341 349 350 350 352 352 354 354 353 353 353 353 352 352 351
301 301 301 302 302 302 302 303 303 304 307 311 312 312 312 312 313 316 317 319 319 318 318 316 311 310 311 313 313 316 318 316 315 316 315 317 318 318 317 319 320 318 321 325 324 325 329 332 334 333 328 327 327 326 325 322 322 325 327 327 329 328 329 332 328 325 327 330 335 335 331 333 334 340 349 351 351 352 352 354 354 353 353 352 353 353 353 352
301 301 302 302 302 302 302 302 303 304 307 310 311 311 312 313 314 315 317 319 319 318 316 313 312 311 312 314 314 315 317 317 316 316 316 316 317 317 316 319 321 320 322 324 323 325 328 329 328 328 326 324 324 324 320 317 317 321 325 326 328 329 327 328 329 327 327 329 332 334 333 333 335 341 349 352 351 352 353 354 354 353 353 353 353 353 352 352
301 301 301 302 302 303 302 302 302 304 308 311 310 311 312 313 313 313 316 319 319 318 317 314 314 316 315 315 316 317 318 317 318 318 318 317 315 316 317 319 322 324 324 325 324 324 325 326 325 324 324 322 323 322 317 316 317 319 322 325 326 327 326 327 328 326 326 327 329 330 332 332 334 341 348 352 352 352 353 353 354 354 353 353 353 353 353 353
300 301 301 301 302 303 303 303 302 305 309 311 310 311 311 312 314 316 319 318 315 316 319 317 317 320 318 316 316 317 319 319 320 320 320 319 318 316 316 318 323 326 326 326 325 325 324 325 324 323 323 323 323 321 319 320 322 321 323 326 327 329 329 329 327 326 325 326 327 327 329 329 331 339 346 351 352 351 352 354 354 354 353 353 353 353 353 353
300 300 300 301 302 302 303 302 302 306 308 308 310 310 310 310 312 315 314 314 313 314 316 317 317 319 319 318 318 318 319 319 320 321 321 321 320 318 317 320 324 326 325 324 324 325 324 324 324 323 323 324 323 322 322 324 325 326 327 327 328 327 328 328 326 325 324 325 327 328 328 329 329 335 344 350 351 351 352 353 354 354 353 353 353 353 353 353
300 300 300 300 301 301 303 302 303 306 305 306 310 309 308 307 309 310 309 310 313 313 314 315 316 317 319 319 319 319 318 319 319 320 322 323 322 320 319 321 324 324 324 325 324 324 324 322 323 324 324 325 324 323 322 323 325 327 327 326 326 326 326 328 328 327 327 326 328 329 328 329 328 330 342 349 350 350 351 352 353 353 354 353 354 353 353 353
299 300 300 300 300 301 302 302 303 306 304 305 309 308 306 305 306 307 307 309 312 312 313 314 313 314 316 317 318 317 317 317 318 319 322 324 323 320 319 321 322 323 323 324 324 324 324 323 323 324 324 325 324 323 322 322 323 324 324 324 324 327 328 329 327 327 326 326 327 328 326 327 328 329 338 348 350 350 351 351 352 353 354 354 353 353 353 353
300 300 300 300 300 300 301 302 303 304 303 305 309 307 306 306 305 306 308 308 310 312 313 314 314 314 315 316 317 316 315 316 318 319 321 322 322 321 319 320 320 322 323 323 324 325 323 323 325 324 324 325 324 324 323 323 322 322 322 321 321 325 327 327 326 324 323 324 325 326 326 325 329 333 338 346 350 351 351 351 352 352 353 354 353 353 354 354
299 300 300 300 300 300 300 301 302 303 302 306 308 307 306 307 306 307 309 310 311 312 314 315 314 314 315 316 317 316 315 316 317 318 319 321 321 321 320 319 320 321 322 324 325 325 323 323 325 325 324 324 324 324 325 324 322 322 323 321 320 325 327 326 326 324 325 325 325 325 324 325 330 333 337 345 348 351 351 352 351 352 352 353 352 353 353 353
299 299 299 299 300 300 300 301 302 302 304 307 308 307 307 307 307 307 310 312 313 313 314 314 314 314 315 315 316 316 315 316 317 318 319 320 322 322 320 319 320 320 322 324 325 325 325 323 324 325 324 325 325 324 324 324 321 322 323 323 323 325 327 326 324 324 326 325 327 326 321 323 332 334 337 344 347 349 351 351 351 351 352 352 353 352 352 353
299 299 299 299 300 300 300 301 301 302 305 307 306 306 307 307 307 309 310 312 314 315 314 315 314 315 315 314 314 315 317 317 317 318 318 319 322 323 321 320 320 320 321 323 323 325 325 323 323 325 325 325 326 325 324 325 321 319 323 324 324 327 327 326 325 324 324 324 327 326 322 322 327 330 335 343 348 349 349 350 351 352 351 352 352 352 352 352
299 299 299 300 299 300 301 302 302 303 305 306 305 307 308 307 308 309 311 314 317 317 315 314 315 315 315 314 315 316 318 318 318 318 318 319 322 324 322 321 320 319 322 322 321 323 324 323 322 324 325 325 325 325 325 324 322 320 324 325 324 326 326 327 326 325 326 327 326 326 325 322 322 327 334 341 346 349 350 349 350 351 351 351 351 351 352 352
300 300 300 300 300 301 301 301 302 303 304 305 305 307 308 307 308 310 313 315 319 318 315 315 313 314 314 313 315 317 317 316 317 318 318 319 321 323 323 321 320 320 322 321 319 322 325 323 323 323 324 325 325 325 325 324 323 323 324 325 324 326 326 327 327 325 326 324 322 324 323 321 320 326 335 340 341 345 350 350 349 350 351 350 351 351 352 352
300 300 301 301 300 301 301 302 303 304 304 304 305 307 308 307 309 312 313 315 319 318 316 315 314 313 314 314 315 317 316 314 315 317 318 319 321 322 323 323 321 320 321 321 320 323 324 324 325 323 323 324 324 325 324 324 325 323 322 324 324 324 325 326 326 324 323 321 320 322 322 320 320 322 331 337 337 340 346 349 349 351 351 351 351 351 351 351
299 300 301 302 302 302 301 302 303 303 304 304 305 307 308 309 311 314 315 316 318 317 315 315 315 313 314 315 315 316 316 315 315 316 318 321 322 322 323 322 321 320 321 322 321 322 322 323 325 324 324 324 323 323 323 323 325 322 322 323 323 323 324 324 324 322 320 319 320 321 321 321 319 321 326 333 336 339 342 345 349 350 351 350 351 351 350 351
299 299 301 303 303 302 302 303 303 303 304 304 305 307 309 311 312 315 318 316 314 316 316 315 315 314 315 315 314 315 315 315 315 317 319 320 322 321 321 322 321 320 320 320 321 321 321 322 324 323 324 324 323 322 322 323 323 322 323 323 320 321 321 320 321 320 318 318 318 320 321 319 317 320 325 330 336 338 337 340 344 348 350 350 350 349 350 351
299 299 300 303 304 303 303 304 303 304 304 304 307 309 310 311 311 314 317 315 313 315 315 314 315 315 315 314 314 315 314 314 315 318 319 319 321 321 321 322 321 320 319 318 319 320 320 322 322 322 323 324 323 322 321 322 323 323 323 321 318 318 318 317 318 318 317 317 318 318 319 318 317 322 326 329 333 335 337 337 341 345 349 351 350 350 350 350
299 299 300 302 303 302 302 303 303 304 304 304 308 310 310 312 313 314 314 314 315 314 314 315 315 315 315 315 315 315 314 314 315 318 319 319 321 321 321 323 323 321 320 319 318 318 319 321 322 321 323 324 323 322 320 320 322 322 321 319 318 318 317 316 317 317 316 316 317 319 319 317 318 323 327 328 330 335 337 338 339 342 347 347 348 348 349 349
299 299 300 302 303 302 302 302 303 304 303 304 308 310 310 311 313 314 314 314 314 314 314 315 314 315 315 315 315 315 315 314 315 316 318 319 320 321 322 322 322 323 321 320 319 318 317 319 321 321 322 323 323 323 322 322 321 322 323 321 319 318 317 316 316 315 315 316 317 318 317 316 316 323 329 328 328 334 336 338 337 339 342 343 344 348 349 348
300 300 300 303 303 302 302 302 302 303 303 305 309 310 310 311 311 312 314 315 314 313 314 313 314 315 315 314 314 316 316 315 315 316 315 317 319 320 321 321 321 322 321 320 319 319 318 319 321 322 323 323 323 324 323 323 321 322 324 322 319 320 319 316 316 317 316 315 317 317 318 319 321 327 331 329 328 330 332 336 337 338 340 342 345 347 348 348
300 300 300 302 302 302 302 302 302 302 303 305 309 310 310 310 310 312 314 314 314 314 313 314 314 315 316 316 315 315 316 315 316 315 314 317 318 318 320 320 320 321 321 320 320 319 317 319 321 321 322 323 323 323 323 322 321 321 321 320 321 324 322 317 317 319 317 315 317 318 317 319 322 325 328 328 329 329 329 331 335 338 340 341 343 345 346 347
300 300 300 301 302 302 303 303 302 303 304 306 307 309 311 309 310 313 313 312 313 314 314 314 314 315 316 316 315 315 315 315 317 315 314 316 316 315 316 316 317 318 319 320 321 321 319 319 320 321 321 323 324 324 323 323 323 320 319 321 323 323 323 320 319 319 317 316 317 318 316 317 317 320 327 330 329 330 329 330 332 336 339 340 341 342 343 344
301 300 300 302 301 302 305 306 304 304 307 307 307 309 310 311 312 313 312 311 312 314 314 314 313 314 315 316 315 314 314 316 317 316 315 316 315 314 313 314 316 317 317 318 320 321 320 318 319 322 322 322 323 324 322 322 323 321 321 323 323 319 320 322 320 318 318 316 317 317 316 316 316 318 326 330 330 331 331 331 332 333 337 339 339 340 340 341
301 300 301 301 301 303 307 309 307 308 309 307 307 309 309 309 311 312 312 311 311 313 314 313 313 313 314 315 314 314 315 316 316 317 316 316 315 314 312 313 315 316 317 318 321 321 320 319 318 321 322 321 322 322 321 320 321 321 321 323 323 320 320 322 320 318 318 317 317 317 316 317 319 322 324 327 331 333 333 334 334 332 335 338 338 338 337 338
301 302 302 301 302 304 307 308 309 310 309 307 308 309 308 309 310 311 311 310 310 312 313 314 314 314 314 314 313 314 315 315 315 316 316 315 314 313 312 312 313 315 317 320 321 321 322 320 319 319 319 319 321 321 322 322 321 320 319 320 320 320 320 321 320 318 318 317 317 318 316 317 322 328 326 326 330 333 335 337 336 334 334 337 336 336 336 335
302 303 302 302 303 305 305 306 307 308 308 307 308 307 307 308 309 310 310 309 309 310 311 312 312 313 313 313 313 314 314 315 315 316 315 314 314 314 313 312 312 315 319 322 322 321 323 322 319 318 317 317 320 322 324 324 324 322 321 320 320 320 319 318 319 318 317 317 318 317 316 317 323 328 328 327 328 328 333 337 336 336 334 334 334 333 334 335
303 303 302 302 304 305 305 305 306 307 306 306 306 306 307 308 308 308 309 309 309 309 310 311 311 311 312 312 313 313 313 315 316 316 316 314 312 312 312 311 312 316 321 322 322 320 323 324 320 318 318 318 320 322 322 323 324 324 323 323 323 321 319 317 318 319 316 317 319 317 317 320 327 332 331 329 330 328 330 335 335 335 334 333 333 331 332 334
303 303 301 302 304 304 305 305 305 306 306 306 306 306 306 307 307 308 309 309 309 308 309 309 310 310 311 311 312 313 313 314 315 315 315 313 312 311 311 311 313 318 320 320 321 320 322 324 322 319 321 321 320 321 321 320 321 322 323 324 323 322 322 320 322 323 318 317 318 318 317 320 328 337 335 331 332 330 329 332 333 335 334 333 332 331 332 333
303 303 302 301 303 304 305 304 304 305 305 305 305 305 306 306 307 307 308 308 308 308 308 308 309 309 310 311 311 312 313 314 314 313 313 313 312 311 312 311 312 317 319 318 319 319 320 323 322 320 320 320 320 320 319 318 319 320 322 323 323 324 323 321 325 326 320 317 318 318 317 319 329 339 336 330 330 329 329 330 330 332 333 332 331 331 331 331
303 303 302 302 303 304 304 304 304 304 304 304 304 304 305 305 306 307 307 308 308 308 308 308 308 309 309 310 311 311 311 312 313 312 311 312 312 311 311 311 312 316 318 317 318 319 320 324 324 322 321 320 321 321 319 319 320 320 322 322 322 323 322 321 322 321 319 321 321 318 318 321 328 335 334 330 330 331 333 331 329 329 328 328 329 329 329 330
303 303 303 302 303 304 304 304 304 304 303 304 304 304 304 305 306 306 307 308 308 308 308 308 308 309 309 309 311 311 310 311 311 311 311 311 311 311 311 311 312 315 316 316 317 319 320 323 323 324 323 322 322 323 321 320 321 321 321 322 323 322 322 322 320 319 322 324 321 320 323 323 324 330 334 335 332 333 335 333 332 331 327 325 327 327 328 330
302 302 302 302 303 304 304 303 304 304 304 304 303 304 304 305 305 305 306 307 307 307 308 308 308 308 308 308 310 310 310 310 310 311 310 310 310 310 310 311 312 314 315 313 314 317 319 320 321 322 321 319 319 320 319 319 320 320 321 322 322 323 323 321 319 322 328 322 317 325 333 325 323 328 333 337 339 338 338 337 335 333 328 325 327 326 328 329
302 302 303 303 302 303 303 302 304 304 304 304 304 304 304 304 304 304 305 306 306 306 308 308 307 307 307 307 309 310 310 310 311 311 310 310 310 310 310 311 312 312 313 312 313 315 317 319 319 317 317 317 316 318 319 319 320 321 321 322 322 323 323 321 321 324 327 321 318 332 340 330 324 326 328 332 338 337 337 335 333 330 327 325 326 326 327 327
303 302 303 303 302 303 302 302 304 304 303 304 305 304 304 303 303 304 304 304 305 306 307 307 307 306 306 307 308 309 309 310 311 310 310 310 310 310 311 311 311 312 312 310 312 314 315 318 318 315 315 316 316 317 319 319 320 319 320 321 321 322 322 322 323 323 324 323 322 332 339 332 326 326 325 327 333 331 330 328 327 326 326 325 325 326 327 327
303 302 303 302 302 303 303 303 304 303 303 303 304 304 304 303 303 303 304 304 304 305 306 305 305 306 306 307 307 307 308 309 309 309 309 309 310 310 311 311 311 311 311 310 311 313 314 316 316 314 315 316 316 317 318 318 319 319 319 320 320 321 322 322 323 323 323 325 323 325 332 332 329 330 329 329 331 330 328 328 327 326 326 326 326 326 327 327
302 302 302 302 302 303 303 303 304 303 302 303 303 303 303 303 303 303 304 304 305 305 305 304 304 305 306 306 306 307 307 308 308 308 309 309 309 310 310 310 310 310 310 311 312 312 312 314 314 314 315 316 316 317 317 317 318 318 318 320 320 321 322 322 324 324 323 324 324 322 324 327 329 330 329 330 331 330 330 332 331 327 326 325 326 326 325 327
303 303 302 302 303 303 303 303 303 302 303 303 303 303 303 303 304 304 304 305 305 305 305 304 304 305 306 306 307 307 307 307 307 308 309 309 309 309 309 310 310 310 310 310 311 311 312 313 313 313 315 316 315 315 316 317 318 318 318 320 321 321 322 322 323 325 324 324 324 323 323 326 330 331 330 329 328 330 333 332 330 328 327 326 326 326 326 327
Wind_Speed
17 17 17 18 18 17 17 17 16 16 16 17 17 17 18 18 19 18 18 18 18 18 19 18 18 17 15 15 17 17 17 18 17 20 23 14 9 13 14 14 13 12 15 19 16 15 26 28 26 26 23 19 13 14 16 8 6 8 4 4 4 3 3 2 3 2 3 4 2 13 17 13 11 12 10 8 7 10 13 6 8 11 4 7 12 18 29 29
18 18 18 18 19 19 19 19 19 18 18 18 18 18 18 18 19 19 19 19 19 19 19 19 19 18 16 15 16 16 18 19 19 23 21 13 14 18 16 17 19 17 16 19 21 20 27 31 29 28 22 14 11 13 14 9 8 8 4 4 5 3 2 2 4 5 6 7 2 13 15 12 13 16 14 9 8 12 12 7 9 10 7 10 13 23 30 28
19 19 19 19 19 19 19 20 20 20 20 20 20 20 19 19 19 20 20 20 20 19 19 19 19 19 16 15 15 15 17 18 22 24 18 13 14 14 14 17 20 21 19 17 19 21 24 30 30 27 20 11 10 13 12 10 9 9 6 5 5 5 6 6 8 11 12 11 6 13 12 8 11 16 14 10 10 13 13 11 14 13 15 17 19 28 31 27
20 20 20 20 20 20 20 20 20 21 21 21 21 21 21 21 21 21 20 20 20 20 20 19 20 19 16 16 14 13 14 16 18 16 8 7 7 4 6 13 17 19 19 16 16 18 22 28 30 26 18 9 9 12 12 12 9 8 8 6 3 3 5 6 7 10 13 10 6 12 10 8 11 13 14 13 10 9 15 19 22 23 25 25 25 31 31 29
20 20 20 21 21 21 22 22 22 22 22 22 22 22 22 22 22 22 21 21 20 19 20 20 20 19 17 15 14 11 9 8 6 6 8 8 4 2 4 9 15 17 18 16 17 21 25 30 28 22 16 9 10 10 11 17 11 6 9 10 7 4 5 5 6 8 11 5 7 11 10 10 12 12 14 17 12 8 15 23 23 25 31 30 31 34 33 32
20 20 20 21 21 22 22 22 23 23 23 23 23 23 23 23 23 23 23 22 21 20 19 19 20 19 17 15 14 10 6 5 4 8 10 4 5 7 7 8 15 19 20 19 23 28 29 31 26 19 14 8 13 10 8 17 15 7 9 11 12 12 11 10 8 10 9 1 8 10 11 12 13 12 15 20 17 9 9 19 23 23 29 30 32 38 39 37
20 20 21 21 22 22 22 23 23 23 24 24 24 25 24 24 24 24 23 22 22 21 19 19 19 19 17 14 14 10 12 17 11 9 9 9 12 11 9 9 16 22 24 25 28 33 34 32 25 19 14 8 12 12 6 12 17 11 8 9 11 13 15 15 13 14 10 7 7 8 11 14 17 12 14 23 22 15 7 10 24 25 27 29 32 40 42 42
20 21 22 22 22 23 23 23 23 24 24 25 25 26 26 26 25 25 23 22 22 21 20 19 18 19 16 14 13 10 17 22 12 9 15 16 15 14 11 10 19 25 27 30 31 35 36 31 25 19 13 8 8 12 8 7 13 15 12 9 10 13 16 16 15 16 14 13 10 9 13 17 22 13 13 24 22 19 10 7 23 27 28 31 34 40 41 42
21 21 22 22 23 23 23 23 23 24 24 25 26 26 27 27 26 26 24 22 21 20 20 18 18 18 16 15 11 9 20 23 16 18 19 15 13 13 12 11 22 30 29 30 31 35 34 30 28 19 12 11 7 10 13 8 7 11 14 13 13 15 17 16 16 18 16 15 10 12 16 19 21 12 11 20 18 19 14 10 22 28 30 32 35 39 41 42
22 22 23 23 24 24 24 24 24 24 25 25 26 27 27 27 27 26 24 22 20 20 19 18 19 18 17 15 9 7 16 15 9 11 10 11 12 10 10 11 23 32 32 31 30 33 32 30 31 18 8 11 8 7 13 11 6 7 12 15 16 17 18 17 16 17 15 14 13 15 16 15 16 11 10 13 18 21 15 14 22 28 31 33 35 39 40 42
23 23 24 24 25 25 25 25 25 25 25 25 26 27 27 26 25 25 24 22 20 19 18 19 18 18 18 15 13 12 14 12 7 7 7 8 10 8 7 11 22 33 33 31 29 28 27 28 32 19 5 9 10 8 11 13 10 9 11 12 14 14 16 15 14 14 11 10 15 18 13 8 12 12 11 10 19 23 19 19 24 28 30 32 33 37 40 40
24 24 25 25 26 26 26 26 26 26 26 26 26 27 26 25 24 24 23 21 19 17 17 18 18 19 17 18 25 22 15 12 9 8 8 6 8 5 5 11 21 30 30 29 27 24 22 24 31 23 7 8 10 5 8 13 13 12 10 11 11 10 12 12 11 10 10 8 11 15 8 6 12 15 13 14 20 22 21 22 24 26 28 30 30 32 38 40
26 26 26 27 27 27 27 27 26 27 26 26 26 26 25 23 22 22 21 19 17 15 15 17 17 18 15 16 23 20 16 17 10 7 8 9 11 7 6 13 22 27 26 26 24 22 22 22 28 25 12 8 7 4 3 6 8 9 7 7 7 7 8 5 4 4 8 6 8 13 5 6 14 17 15 18 22 23 22 23 24 24 25 27 29 29 35 40
28 28 29 29 29 28 28 27 27 27 26 26 26 25 23 21 19 19 18 17 14 12 13 15 16 17 17 19 17 11 14 22 20 17 14 10 9 7 7 15 24 27 26 24 23 24 25 23 25 22 13 8 5 3 2 1 3 4 4 5 4 5 4 2 1 3 5 5 12 14 8 6 10 15 18 21 26 27 22 23 24 24 24 25 28 29 32 38
30 30 31 31 31 30 29 29 28 26 26 26 24 22 20 18 17 16 14 13 11 9 10 12 15 15 13 19 20 13 13 21 24 22 20 18 14 9 10 17 24 27 26 21 20 23 25 24 23 16 9 9 6 3 4 3 2 2 4 5 3 4 5 2 2 5 6 3 12 13 7 5 4 10 20 23 27 28 23 23 25 25 25 26 27 28 29 33
31 32 32 33 32 31 31 31 29 26 25 23 22 20 17 15 15 14 13 11 9 6 5 8 15 15 7 11 15 14 15 19 22 21 22 24 21 16 13 17 22 26 24 17 12 17 23 21 18 13 8 8 8 5 4 4 4 3 4 6 4 4 5 4 1 2 4 2 8 11 8 6 1 6 18 23 26 26 22 22 25 26 26 26 27 28 28 29
32 33 33 33 33 32 32 31 30 26 23 21 20 17 14 14 13 13 13 10 8 5 2 4 10 11 8 8 9 11 13 16 17 18 21 25 24 20 16 17 22 26 24 16 9 12 21 18 11 9 7 5 5 6 6 8 8 5 4 6 5 4 5 5 1 3 1 1 4 9 10 10 4 4 13 22 25 25 22 23 25 26 26 27 26 26 28 29
32 33 33 33 33 33 32 31 30 25 21 19 19 16 14 13 12 14 14 11 7 3 3 5 9 4 9 13 11 6 5 10 13 14 17 22 25 21 18 18 21 24 20 13 10 12 16 12 7 5 5 7 7 8 9 7 7 7 6 6 4 5 7 8 4 3 4 4 5 7 9 12 9 3 11 19 23 24 23 23 24 25 26 26 26 26 28 30
32 32 33 33 32 32 31 31 30 23 19 18 18 16 12 11 11 11 10 10 8 5 3 7 14 5 3 8 13 9 5 6 9 12 15 20 23 22 19 17 20 24 18 10 10 12 11 6 6 8 7 11 11 12 11 2 4 9 8 8 7 6 8 7 4 3 5 7 8 9 9 11 11 5 9 16 20 22 20 18 19 22 24 25 26 27 27 30
31 32 33 33 31 31 29 31 28 20 19 20 18 14 9 10 8 5 11 19 18 16 15 14 21 18 9 4 7 9 8 9 9 10 13 17 22 23 20 18 20 19 13 9 9 11 12 7 8 11 10 11 12 12 10 2 3 8 7 8 8 8 8 5 3 3 3 6 8 7 9 12 11 6 8 15 19 18 16 15 18 21 23 26 27 28 29 31
31 31 33 33 32 31 27 30 26 16 19 22 17 11 10 11 6 6 19 26 22 20 24 27 27 31 30 20 12 8 6 7 10 12 12 15 22 21 19 20 15 10 9 11 10 8 11 11 12 11 7 8 10 10 10 8 7 7 7 7 7 8 8 3 3 5 3 5 9 8 11 13 11 7 7 14 16 17 20 20 21 24 25 26 28 29 29 28
31 31 33 33 33 32 27 29 23 14 19 18 11 10 13 12 10 10 14 17 26 28 24 25 27 34 38 34 30 24 14 10 12 15 14 17 24 20 17 18 12 8 9 10 8 7 9 12 12 10 7 7 9 10 12 13 12 9 8 7 8 8 6 4 4 5 4 5 7 8 10 11 10 7 7 14 17 19 26 27 26 29 27 27 29 30 29 26
31 31 33 33 34 32 27 27 20 14 19 14 5 10 14 15 14 13 9 10 25 31 26 26 28 33 38 35 35 31 21 15 15 19 20 21 24 21 17 15 12 10 11 13 11 9 9 9 10 13 10 11 11 11 14 13 11 11 9 9 10 7 5 6 3 2 2 4 6 8 9 9 8 6 7 14 18 18 23 26 25 25 27 28 29 29 27 28
31 31 32 33 34 32 28 24 16 16 19 9 2 8 15 18 16 14 8 8 13 19 22 23 22 27 32 29 26 27 27 21 16 21 26 25 22 19 17 14 13 11 11 17 17 13 8 2 10 16 14 16 13 11 14 11 9 12 13 12 11 8 7 5 1 2 4 5 5 6 9 9 6 7 7 8 14 14 16 21 21 21 23 23 23 23 24 27
32 31 32 34 33 32 29 20 16 21 16 3 3 11 16 18 15 12 7 6 8 9 10 9 12 17 19 17 16 21 21 20 25 28 26 29 27 17 11 13 12 11 15 17 15 14 10 4 12 18 16 18 16 12 15 13 9 10 14 15 11 7 7 5 1 3 6 6 4 2 8 7 2 5 5 4 8 11 13 16 20 21 21 21 21 23 24 27
33 32 32 33 33 34 28 18 17 23 12 1 9 16 17 16 13 8 3 3 5 4 2 3 6 5 6 10 16 16 8 11 26 32 25 28 32 19 9 10 8 10 14 13 7 7 7 8 12 15 16 19 17 13 15 14 9 8 9 12 10 7 9 9 6 4 5 6 2 2 7 7 3 6 6 4 7 11 12 14 18 22 22 23 25 25 26 27
34 34 33 32 32 32 27 19 17 20 14 12 17 17 16 13 9 5 1 3 4 3 3 2 3 3 3 8 20 17 3 2 10 24 30 30 31 23 12 10 8 8 9 7 5 5 9 13 12 13 15 16 15 12 13 15 12 6 5 10 11 10 12 11 8 7 7 7 6 6 8 8 9 8 4 6 8 9 12 14 16 22 25 26 27 27 28 29
34 34 33 32 30 26 24 20 17 18 19 22 22 17 15 12 6 2 1 3 2 4 4 3 3 4 2 10 24 15 3 2 3 14 31 33 29 21 13 13 13 11 13 11 9 7 12 17 16 16 14 12 13 11 13 17 13 4 6 8 10 11 12 11 8 9 6 6 9 9 8 8 10 6 4 6 9 10 13 16 16 21 25 27 29 29 29 30
34 34 33 31 28 22 19 18 17 19 21 24 22 18 16 10 3 1 2 4 1 3 3 4 4 2 3 10 20 13 7 3 2 5 22 29 29 19 9 14 13 10 15 16 12 6 8 15 18 16 12 10 12 10 13 18 13 4 6 7 7 7 7 7 8 7 4 6 11 10 8 7 11 7 5 5 8 11 12 13 15 21 26 28 30 31 30 30
33 33 30 26 24 22 19 17 17 20 22 23 21 18 14 6 2 3 5 4 1 2 2 3 3 2 2 7 9 12 8 6 5 6 16 18 24 18 5 9 11 7 10 14 12 4 3 8 14 12 11 12 11 8 11 17 12 7 8 7 6 5 4 3 3 3 5 9 11 12 11 8 10 8 8 7 7 10 10 9 12 17 23 27 29 31 31 31
33 33 27 20 19 21 21 21 20 20 22 22 19 14 7 1 2 4 5 1 3 2 3 2 2 2 0 2 4 5 8 7 1 9 12 10 15 14 6 9 9 6 7 10 11 8 3 6 7 7 13 14 11 8 9 14 13 9 8 8 5 4 2 3 3 3 9 8 4 8 13 12 11 7 7 9 11 12 12 12 12 14 21 27 29 31 33 33
34 33 26 15 14 18 19 22 22 22 22 20 17 11 3 3 4 6 3 3 2 2 3 1 2 4 4 3 3 3 4 4 6 10 10 9 11 12 11 11 9 9 10 10 9 9 9 7 4 5 13 17 13 9 7 9 12 11 9 9 7 5 4 6 6 5 9 6 2 3 9 11 12 7 5 9 11 12 13 13 14 15 19 25 29 32 33 34
35 34 26 12 11 18 17 19 22 22 20 19 15 8 2 5 5 6 6 4 2 4 4 3 7 8 6 3 1 3 3 2 7 10 10 10 9 11 13 11 12 9 6 9 10 7 7 7 7 7 8 15 16 10 8 8 11 13 10 10 9 7 6 8 8 5 5 4 2 3 5 7 8 5 9 14 13 15 17 18 20 20 21 27 31 33 33 33
33 33 25 9 9 18 17 17 20 20 20 19 12 3 6 7 2 0 3 3 5 6 6 8 10 8 5 2 3 3 1 1 2 6 9 9 8 11 11 9 13 8 2 7 9 8 10 8 10 13 8 14 18 13 11 10 10 13 10 9 10 7 7 6 5 5 3 2 3 4 5 6 3 1 6 12 14 16 19 20 24 25 25 27 29 29 31 33
32 30 19 6 10 18 17 15 17 18 17 15 6 4 7 6 2 3 3 6 7 7 11 13 9 5 2 2 2 5 2 2 3 1 8 9 8 9 8 7 12 9 5 7 5 7 14 7 7 17 12 15 17 13 12 13 9 10 9 10 11 8 5 1 1 3 1 0 3 5 4 3 1 2 4 6 8 12 15 15 18 21 21 20 19 22 28 32
32 29 15 6 15 22 19 16 15 15 13 8 2 5 5 3 3 3 6 9 8 8 13 11 4 2 2 1 1 5 3 2 4 0 6 6 2 1 1 0 4 3 2 7 5 5 10 6 6 11 11 14 18 15 14 13 8 6 9 11 8 7 7 5 2 1 1 4 4 5 7 4 2 6 7 9 9 9 12 13 14 18 18 16 17 21 26 31
35 30 15 10 20 24 22 18 15 14 9 2 3 4 3 2 4 6 9 12 10 9 9 5 2 2 2 1 1 6 6 3 3 1 3 4 2 5 6 5 3 6 6 3 4 3 4 5 5 10 12 13 16 17 16 15 11 7 9 10 7 6 7 6 4 3 4 7 4 6 11 8 4 5 4 8 12 11 11 12 14 16 16 16 18 22 28 32
35 26 13 14 23 23 19 16 13 10 4 2 5 4 3 4 7 10 12 13 10 7 5 4 2 3 3 3 2 6 7 3 3 3 1 2 2 5 6 4 3 6 8 6 3 2 4 4 5 11 15 9 10 14 12 11 11 5 6 10 8 5 7 6 5 6 7 8 5 5 9 9 9 7 2 5 10 12 11 11 12 14 14 17 19 21 28 31
32 20 10 15 22 19 13 11 9 3 3 2 3 3 4 6 10 14 15 13 9 6 5 4 2 3 3 5 4 5 6 3 4 3 1 2 2 5 9 5 5 8 9 6 3 2 3 5 4 7 10 9 10 11 10 10 8 2 6 10 6 3 6 7 5 4 5 7 5 3 5 6 8 9 9 9 9 9 10 9 10 13 15 19 21 22 27 30
28 14 8 18 22 16 10 9 9 4 1 2 2 4 6 7 11 15 15 13 7 5 5 4 5 5 4 6 5 4 4 3 4 3 2 4 2 5 10 8 6 12 11 4 3 1 1 6 5 2 6 9 9 9 11 13 10 6 8 10 7 3 3 4 5 4 4 6 5 5 6 3 2 6 12 15 13 10 10 9 9 12 16 20 23 27 30 32
23 8 8 20 20 13 9 8 8 4 1 3 4 5 8 8 10 13 14 12 8 5 6 7 7 6 5 5 4 3 3 3 4 3 2 3 3 4 9 11 9 11 8 1 1 3 0 4 5 4 5 7 8 11 16 18 16 14 10 10 11 8 5 6 6 6 6 6 4 4 8 4 3 4 8 12 12 12 12 11 9 12 17 22 27 33 34 31
15 6 10 19 18 14 10 6 6 5 2 4 6 7 9 8 9 12 12 12 9 5 5 6 6 4 3 3 2 3 3 3 3 2 3 5 6 5 9 14 13 10 5 2 3 4 2 1 4 5 4 3 5 10 14 13 13 15 12 11 13 11 9 9 7 7 7 5 2 2 8 5 3 6 7 8 10 12 13 11 10 12 16 21 28 34 33 30
10 10 14 18 16 14 9 3 6 5 2 7 10 8 8 7 7 10 10 11 9 6 5 5 5 5 3 2 3 3 3 3 3 4 3 5 6 6 11 16 15 10 6 3 3 4 2 1 4 4 1 0 2 5 7 4 5 11 12 11 12 12 13 12 6 4 7 7 5 5 8 4 3 3 5 5 6 8 9 10 11 13 16 19 24 29 30 31
12 13 14 17 15 14 9 4 6 5 5 10 11 9 8 7 7 9 8 9 9 7 5 5 7 6 5 5 3 4 4 3 3 5 4 3 4 7 13 16 14 10 6 6 6 4 2 0 3 5 5 5 6 7 7 4 5 7 8 10 13 14 17 15 6 2 6 12 12 9 9 4 3 1 2 3 5 6 9 10 11 12 16 17 18 20 22 24
12 8 11 18 16 14 10 6 5 5 7 11 11 9 8 7 9 9 8 8 10 9 7 6 8 8 7 6 3 5 6 3 3 4 4 4 4 7 13 14 12 10 9 11 11 4 1 1 1 5 9 10 8 7 6 3 3 3 3 8 13 16 20 15 6 4 8 10 12 12 8 1 3 2 3 4 5 7 10 10 9 11 18 19 17 17 16 16
10 4 8 15 13 9 8 8 9 7 6 9 9 7 8 8 9 10 9 7 9 13 9 7 10 9 8 9 5 4 7 5 3 4 4 5 4 5 12 12 9 11 12 14 15 6 1 2 2 1 1 2 1 2 2 3 2 3 3 4 7 12 18 15 9 7 6 5 9 13 9 5 4 4 4 5 6 7 9 9 8 12 18 21 19 17 14 13
6 3 7 9 7 7 6 7 11 9 8 9 6 5 9 10 8 9 9 5 8 12 7 6 12 10 9 10 6 3 6 4 4 5 5 5 3 5 10 7 7 13 12 12 14 7 1 2 4 4 5 4 5 6 5 4 4 5 6 7 6 6 12 16 14 8 7 6 11 10 7 10 10 6 5 6 7 7 7 7 9 13 17 17 15 13 13 12
5 5 8 6 3 5 6 8 12 11 11 10 4 3 9 10 8 9 8 6 8 10 5 5 12 11 11 12 6 3 5 3 3 5 5 6 5 6 7 4 6 13 13 10 10 6 1 1 4 5 6 5 7 8 5 4 5 6 7 10 10 8 9 12 13 9 10 10 12 7 8 11 12 10 11 9 5 6 7 9 12 14 15 13 9 10 11 11
6 6 8 6 5 8 10 12 13 11 10 9 4 4 9 10 10 9 6 5 7 7 6 5 9 11 12 11 7 5 6 3 2 4 6 7 6 5 5 2 4 11 13 8 7 6 2 1 4 6 7 6 7 8 5 3 4 7 9 11 12 12 11 10 11 12 12 13 13 10 9 11 12 12 15 14 11 11 12 11 12 13 12 12 11 12 15 19
8 7 8 9 9 11 12 11 10 8 8 7 4 4 8 10 11 10 8 6 6 4 7 8 10 11 10 9 7 5 6 6 5 4 6 7 5 3 3 2 3 8 10 6 5 6 4 1 4 7 6 5 6 7 7 6 7 9 11 11 12 12 13 12 11 12 12 12 14 14 10 9 8 6 9 12 10 9 10 11 15 18 18 18 18 21 24 27
11 10 10 9 7 8 9 8 7 7 5 4 4 6 9 10 11 12 10 6 6 3 6 9 11 10 7 8 7 5 7 9 8 8 8 7 6 5 4 3 4 6 6 4 4 5 4 2 2 4 5 4 4 6 10 13 12 12 12 13 13 13 12 11 9 10 10 9 11 14 11 7 4 4 7 9 7 7 9 10 16 24 27 24 22 24 27 29
12 11 9 7 5 5 7 7 6 6 5 5 7 9 10 10 11 12 8 3 3 6 8 10 10 8 5 6 7 8 12 14 14 13 12 11 11 11 11 10 9 6 3 3 4 3 3 3 2 3 4 4 5 7 10 12 11 10 9 8 10 13 12 12 12 12 12 10 9 10 8 5 5 7 8 10 10 10 10 13 20 26 28 27 25 27 29 31
Wind_Direction
338 337 336 333 331 329 326 325 321 319 315 311 307 303 300 298 296 295 293 290 289 288 289 289 288 287 285 287 285 286 287 282 282 275 268 268 276 268 255 249 244 237 219 211 214 185 167 171 179 180 172 170 177 178 182 185 175 182 209 228 234 246 245 224 231 290 321 333 163 176 177 163 152 163 155 143 141 139 158 166 162 179 210 186 185 173 163 162
336 335 334 331 329 327 326 324 322 321 318 315 311 306 302 299 295 293 291 289 287 286 287 288 288 286 288 288 286 290 290 289 288 273 266 268 269 265 253 243 237 234 225 213 214 201 177 172 175 172 164 163 176 176 183 188 180 189 205 225 234 229 227 237 262 289 289 306 238 190 188 176 165 160 161 165 150 151 166 172 167 161 163 177 176 171 167 163
336 334 333 331 329 327 325 324 322 320 318 317 313 311 308 302 298 294 290 287 285 285 285 286 287 287 289 289 289 293 295 301 293 277 272 266 256 251 242 238 234 229 225 217 213 211 194 178 172 167 159 159 173 175 186 188 189 205 214 234 243 243 258 260 268 284 294 299 242 192 187 185 167 158 166 172 160 172 187 181 175 168 160 166 166 170 169 165
337 335 334 331 329 328 326 324 322 320 318 316 313 312 309 304 301 296 292 287 284 282 282 284 284 286 290 291 292 294 305 310 291 277 260 212 198 192 225 229 227 224 219 220 212 206 199 183 171 165 163 166 172 177 193 193 187 197 212 231 236 236 249 252 270 292 313 313 217 178 177 187 168 166 172 162 160 197 209 197 189 183 174 168 165 169 170 168
338 337 335 333 331 329 328 326 324 322 318 316 313 311 308 305 301 297 295 290 286 281 279 280 281 284 289 290 291 291 310 318 274 219 171 159 173 225 252 230 220 216 206 204 197 191 189 179 166 164 171 172 171 182 206 203 199 208 222 233 242 257 269 278 291 304 324 336 167 169 180 180 165 180 182 171 183 212 216 208 198 192 188 181 172 171 172 171
340 338 337 335 333 331 330 328 326 323 320 317 315 311 308 304 300 297 294 292 290 284 278 276 277 280 284 288 289 281 263 254 210 171 172 189 280 270 271 241 210 201 193 188 185 181 178 169 161 168 179 179 182 190 205 202 207 231 235 235 244 254 264 275 280 291 310 225 169 181 185 170 169 197 194 191 204 208 223 215 202 197 194 187 175 174 176 177
344 341 339 337 336 334 332 331 328 325 322 319 316 314 310 305 301 297 294 293 290 286 281 274 273 275 280 285 283 270 244 250 242 204 224 270 280 269 272 247 204 190 181 181 180 177 172 168 168 172 175 182 195 196 191 197 208 229 246 244 247 253 257 265 269 275 279 252 232 194 180 178 188 201 192 204 215 209 244 229 204 198 189 185 179 178 181 182
346 344 341 339 337 336 334 332 330 326 322 319 317 315 312 308 304 300 296 293 289 287 281 274 271 270 274 277 276 267 248 250 253 247 259 271 273 262 255 227 193 182 178 182 181 178 174 171 173 170 176 187 187 196 196 194 210 226 245 255 257 260 260 265 269 269 266 261 256 200 194 201 199 190 191 211 214 208 233 224 201 198 186 186 184 182 184 184
347 344 341 339 337 336 334 333 330 326 322 319 317 316 313 310 306 303 299 294 289 284 280 275 270 266 267 267 266 266 254 256 270 269 263 264 261 247 240 218 187 178 178 182 182 181 175 172 177 171 182 186 167 190 200 209 215 218 234 248 255 260 265 269 269 269 268 258 239 208 220 219 199 185 214 217 203 202 218 203 195 193 186 187 186 185 186 187
347 343 341 339 337 336 334 332 330 325 321 318 319 317 314 310 306 305 301 296 290 283 279 272 266 262 259 256 239 249 262 264 273 259 256 255 238 223 226 214 188 177 176 179 181 184 181 182 181 167 166 184 184 193 195 210 223 224 237 248 254 261 268 268 265 265 267 259 231 218 234 224 188 191 230 209 192 201 200 187 190 188 186 187 186 187 188 191
346 343 340 338 337 335 334 333 330 326 321 319 320 318 315 311 307 306 302 297 291 283 276 268 263 257 254 246 223 233 258 258 245 245 274 257 218 207 211 203 189 180 176 178 184 190 193 192 180 165 154 180 191 210 213 222 235 258 266 268 265 267 271 261 259 255 247 255 230 219 235 208 169 206 228 181 186 199 189 179 183 184 185 187 187 188 190 192
345 341 339 337 336 335 335 334 331 328 324 322 321 319 317 314 309 306 302 300 293 282 271 263 257 251 249 243 237 240 249 256 253 247 251 203 161 164 200 197 188 183 180 180 186 193 199 197 183 177 172 164 173 197 227 225 232 252 263 278 277 278 280 258 253 242 211 243 228 205 227 190 180 219 217 182 184 187 183 179 177 181 183 185 187 188 192 194
345 342 340 338 337 337 337 335 333 330 327 325 323 321 320 317 313 309 305 303 295 284 268 256 250 244 237 239 247 247 241 245 242 215 204 158 134 130 177 193 182 180 184 186 188 191 197 198 189 188 183 166 167 163 183 199 221 241 245 268 282 285 284 245 240 223 200 244 198 177 238 222 201 215 198 184 183 173 176 177 175 181 180 183 187 189 193 194
346 344 342 340 340 340 340 338 335 331 330 328 325 323 322 320 316 312 311 309 303 289 266 249 241 235 229 238 252 251 229 232 232 226 220 194 160 148 177 191 182 178 184 191 192 191 196 198 192 191 191 184 169 175 206 143 213 244 258 253 266 268 249 121 91 204 213 243 179 180 263 259 199 205 189 184 184 175 176 177 176 181 180 184 187 190 194 196
347 345 343 341 341 342 343 342 338 335 332 329 327 326 324 321 317 314 313 314 315 297 264 242 227 216 230 252 256 252 228 223 229 229 224 221 216 205 192 188 189 186 185 194 198 195 194 190 188 189 194 206 211 229 246 268 237 239 258 237 214 235 253 318 334 218 239 244 183 193 264 275 191 192 186 182 183 179 178 178 177 181 182 186 188 191 194 197
346 345 343 342 341 342 344 344 342 338 333 331 331 330 324 318 311 306 304 309 322 313 256 230 216 204 227 271 258 250 235 223 228 227 221 221 222 226 211 187 190 194 192 195 199 198 193 183 186 199 204 209 212 220 234 248 237 205 228 243 224 228 271 306 59 178 238 206 189 211 257 284 328 166 181 181 182 182 180 179 180 181 183 186 190 192 193 196
345 344 342 341 340 341 343 346 345 340 334 334 335 333 324 313 302 296 294 296 318 325 277 214 196 206 235 256 250 247 240 227 226 226 219 216 220 226 210 183 186 195 196 196 187 180 185 182 185 202 211 211 197 191 210 228 223 194 203 242 249 238 269 273 205 67 16 220 221 225 246 273 298 129 176 185 184 185 185 183 182 182 183 187 191 192 194 195
344 342 340 339 339 338 341 346 345 341 336 338 341 339 324 310 299 293 284 282 300 304 272 186 159 206 247 230 226 217 215 213 213 218 212 208 216 218 204 186 182 184 183 184 181 167 172 181 189 195 201 204 194 191 207 215 202 192 195 221 242 229 242 255 252 22 12 326 290 255 251 267 272 172 176 192 190 191 193 188 184 183 183 186 191 195 196 197
344 342 339 338 337 337 339 344 346 343 337 341 349 343 325 315 305 288 276 281 280 245 258 182 175 210 286 215 218 208 196 193 198 208 200 199 204 204 204 197 178 170 165 167 180 176 171 166 190 208 207 200 198 202 208 179 165 194 201 222 242 236 240 254 263 315 342 315 288 276 273 273 273 229 179 195 196 198 201 190 185 185 185 187 192 198 198 199
344 341 339 337 336 336 338 343 345 345 342 348 352 347 347 346 328 292 304 298 274 248 258 238 216 235 260 248 228 223 225 218 213 207 195 197 192 185 186 180 167 167 168 165 166 172 180 193 209 212 210 196 193 201 204 179 167 186 189 217 233 240 249 254 268 290 333 303 281 280 284 280 280 262 194 194 195 200 203 191 190 190 189 191 194 199 201 203
344 341 339 338 336 336 338 343 343 343 348 350 349 5 40 23 4 324 319 308 289 267 262 257 245 247 251 250 243 241 261 251 233 210 197 196 185 175 173 168 162 178 181 152 137 150 182 215 221 206 196 181 186 195 196 205 208 197 194 210 224 233 245 244 268 279 279 279 276 282 285 281 281 272 208 190 190 200 202 196 196 195 195 196 197 200 202 202
345 342 340 338 337 336 338 342 342 340 347 343 342 30 49 24 360 325 312 301 296 292 281 268 255 251 251 247 245 249 266 274 242 217 199 186 184 179 170 173 178 178 166 147 137 158 198 229 215 178 162 170 184 192 194 207 216 220 219 223 235 234 250 260 251 263 249 252 276 288 286 282 288 281 216 193 195 202 205 202 200 197 196 197 198 201 199 197
348 344 341 340 338 336 338 343 340 337 342 335 339 26 19 355 345 326 295 275 291 292 284 270 255 251 248 245 245 243 240 243 239 227 205 182 185 188 173 177 190 166 160 180 186 183 204 231 191 160 166 182 188 191 194 206 214 222 221 219 234 222 228 248 201 142 217 234 278 298 293 283 282 268 225 204 205 208 208 208 206 203 201 201 201 200 197 195
351 347 343 342 339 335 340 343 335 340 346 337 338 8 354 340 335 330 304 259 281 288 280 267 254 252 247 242 240 229 222 223 226 226 211 187 179 186 184 179 180 175 179 193 198 202 211 199 159 164 177 192 195 188 192 204 212 220 220 221 231 213 209 237 218 346 279 239 252 289 294 283 259 251 245 204 207 215 212 209 211 211 210 208 205 204 202 201
351 349 345 344 341 336 341 345 337 347 356 356 340 335 333 333 329 330 317 263 268 278 281 259 241 249 241 231 222 213 214 220 224 223 210 195 185 173 178 180 178 194 194 189 197 217 221 140 154 174 181 193 201 197 196 202 212 220 221 224 227 205 202 214 202 299 285 260 232 247 277 272 213 245 253 171 200 217 211 209 213 214 213 211 209 208 207 205
351 350 347 345 344 338 342 354 343 346 360 348 327 321 318 328 326 320 308 277 273 251 241 195 215 226 200 195 189 182 191 232 234 226 208 201 196 175 157 173 189 207 187 176 197 233 208 150 160 183 187 191 201 209 199 194 215 231 210 206 208 198 207 216 217 243 266 272 255 190 263 277 268 255 240 180 204 215 210 214 216 215 214 212 212 211 209 207
349 351 349 347 347 342 345 355 341 340 350 334 325 321 319 325 324 317 254 269 267 188 128 144 175 135 142 188 171 160 166 235 221 215 206 203 195 185 183 173 186 204 155 143 213 213 170 162 169 186 190 193 203 210 189 184 214 234 152 165 184 198 215 221 230 243 256 277 272 233 243 272 273 259 219 183 208 216 214 218 216 215 215 213 214 214 211 208
348 351 352 349 350 346 342 345 339 338 340 333 329 325 324 323 311 282 246 294 271 126 107 126 114 97 116 174 173 174 316 25 136 203 202 200 189 186 202 190 184 183 153 165 207 175 159 178 182 181 189 200 207 201 172 181 213 220 135 163 181 198 216 219 230 246 250 267 264 237 207 242 266 254 146 172 214 225 221 218 217 216 215 213 214 214 212 210
345 350 354 351 351 350 340 339 338 333 330 330 329 324 322 316 285 207 239 277 236 96 71 132 113 43 93 154 189 221 311 352 359 187 186 192 190 187 209 197 181 166 168 190 210 163 155 191 187 178 191 204 202 190 165 184 209 174 137 154 158 175 195 202 223 240 230 241 255 238 188 221 267 251 175 176 216 226 224 219 218 216 213 212 213 214 212 209
344 349 355 353 354 352 343 338 334 328 328 329 327 321 320 303 205 190 210 242 331 53 33 104 87 353 117 143 210 246 260 287 346 144 168 183 189 190 192 175 169 157 178 208 222 195 96 186 185 180 200 202 191 179 171 188 191 143 150 163 147 152 147 169 209 224 239 248 250 232 198 210 267 254 198 192 208 213 219 222 220 217 213 213 213 213 212 208
344 348 354 356 358 354 343 336 332 329 330 330 325 318 312 221 199 220 207 245 352 19 26 49 58 8 98 194 239 232 228 257 322 152 169 174 183 187 159 154 169 170 185 213 223 219 192 173 173 186 202 195 179 174 181 188 181 167 186 192 180 177 173 217 205 201 241 248 233 214 200 204 243 246 190 199 204 198 211 222 217 212 212 212 212 212 211 209
344 348 352 350 355 359 346 332 327 326 332 334 326 316 272 193 224 225 242 324 327 15 23 11 339 346 332 282 245 222 223 221 174 168 178 182 183 185 183 179 173 177 197 203 197 206 211 195 167 189 201 193 183 182 184 182 186 196 199 193 201 200 192 220 212 211 239 235 102 187 193 205 239 250 204 210 210 204 215 223 220 213 208 207 209 211 210 209
343 347 349 339 348 358 348 333 325 322 333 338 328 319 223 223 230 217 250 294 18 14 355 311 318 317 288 268 295 259 252 187 175 183 184 189 191 191 199 197 181 186 206 188 182 189 204 215 205 197 197 193 190 186 178 177 190 200 195 189 198 194 196 215 211 223 248 221 143 128 174 225 255 251 215 214 210 208 211 217 222 220 211 210 212 211 208 208
343 346 348 338 342 348 342 334 327 322 333 340 330 301 205 224 261 274 254 303 358 349 333 322 319 304 256 220 16 353 259 123 152 183 181 186 195 195 199 197 192 199 116 166 192 192 198 218 203 197 185 176 191 201 181 167 183 198 192 191 203 201 205 212 200 217 244 192 156 143 178 223 227 190 214 215 215 213 213 216 223 226 222 220 218 210 205 207
342 347 351 341 334 342 339 331 326 322 331 341 328 235 215 226 307 12 0 352 348 339 328 319 306 281 247 159 36 14 34 79 44 176 191 188 193 197 198 194 195 199 172 180 193 191 209 228 180 191 184 162 186 201 166 155 180 195 181 196 217 205 186 202 223 211 208 185 186 181 220 237 192 293 264 233 231 227 227 227 225 230 228 218 212 205 204 208
343 350 359 349 339 341 340 333 322 315 324 342 299 238 241 279 352 12 7 354 340 332 324 314 290 255 289 156 39 14 14 4 16 327 193 176 160 196 315 335 190 203 206 197 183 168 210 219 141 172 181 179 189 180 162 171 178 167 185 204 206 174 183 221 247 131 183 250 217 196 243 266 269 266 241 216 227 227 231 234 228 234 230 210 204 205 206 209
346 352 359 351 343 340 338 331 316 305 309 302 238 257 273 331 8 14 1 348 329 320 319 316 359 343 323 2 1 357 348 328 1 359 182 148 64 8 347 339 5 17 4 273 213 161 203 208 139 156 184 198 188 170 174 183 158 145 197 190 136 136 200 225 235 210 218 245 234 205 238 246 229 252 216 195 214 216 219 224 225 233 232 222 216 210 212 215
346 352 4 350 340 339 339 334 321 304 281 211 242 270 295 303 340 357 353 344 326 315 313 292 326 8 0 351 346 348 338 323 8 10 117 117 58 18 355 317 334 5 353 319 253 168 207 219 167 179 191 180 159 170 183 181 166 167 184 163 141 176 195 183 215 228 218 237 250 211 231 238 222 224 207 192 210 215 218 218 221 228 227 229 226 218 220 219
348 354 6 348 339 343 353 359 4 355 206 250 264 272 321 313 323 338 344 340 324 313 311 289 320 2 347 339 343 345 342 348 358 351 57 29 46 47 20 342 302 332 334 303 252 161 197 211 200 197 185 153 155 187 191 182 188 181 147 162 177 214 188 174 195 213 205 228 247 226 228 239 221 212 215 224 223 223 229 225 225 229 225 227 227 224 223 221
353 353 351 349 346 349 4 25 32 42 195 341 318 312 340 330 320 328 336 338 324 301 305 307 319 319 317 330 333 336 345 350 347 351 49 21 74 75 25 1 317 325 328 280 237 358 194 208 211 156 148 162 176 194 194 188 189 184 176 184 188 180 178 184 196 207 212 221 232 246 249 242 174 189 205 216 220 222 228 227 228 232 231 232 232 231 230 227
357 344 334 352 355 359 18 41 33 14 14 10 346 331 334 326 324 330 334 339 331 295 294 302 305 303 302 311 320 349 339 315 330 3 59 29 50 67 14 354 327 319 324 286 110 12 327 204 202 176 172 188 182 187 200 199 193 193 194 191 190 185 178 186 203 207 213 225 217 243 264 257 141 171 201 210 217 220 222 224 227 231 233 235 236 237 237 234
358 333 341 356 3 11 27 53 27 11 27 357 340 322 317 320 332 334 335 343 345 325 308 303 305 314 310 305 325 359 348 331 336 2 81 62 50 39 357 345 334 330 343 49 58 13 351 190 200 200 197 198 180 193 212 215 205 205 203 194 194 194 187 197 213 191 189 219 212 240 273 272 140 165 194 201 212 222 226 227 230 235 237 238 241 243 242 241
344 325 350 6 13 18 30 58 18 12 2 349 340 316 312 330 346 342 339 343 347 344 330 320 327 339 353 347 340 348 350 0 30 48 81 87 66 21 351 347 346 353 14 30 20 2 345 201 198 204 199 285 211 216 235 254 229 220 215 203 200 199 199 209 219 172 180 201 186 214 251 244 125 164 200 209 228 238 243 239 235 240 244 245 247 248 248 247
326 313 342 9 27 38 40 35 11 359 340 343 339 329 340 355 357 352 341 339 350 351 334 335 341 340 342 337 348 26 8 1 62 57 55 74 57 7 350 352 358 10 28 15 355 332 316 236 190 193 193 207 214 216 217 204 204 225 224 212 208 203 206 214 207 135 209 206 194 215 237 206 110 102 210 232 252 260 261 247 236 244 251 251 252 253 254 254
332 313 334 355 20 48 51 38 12 350 347 346 333 332 353 356 354 356 340 339 356 349 333 346 348 344 353 348 7 49 22 12 54 56 59 49 33 3 347 346 1 15 15 6 357 333 268 14 223 207 205 205 206 210 213 196 199 232 235 219 214 208 210 214 196 187 216 201 194 218 236 167 95 142 210 233 246 258 263 255 243 247 255 258 260 261 260 259
338 328 336 343 360 33 44 33 15 357 351 348 332 332 352 349 349 353 345 350 1 345 338 10 6 358 5 1 7 43 20 16 40 59 68 37 19 354 339 338 5 16 10 6 360 345 192 54 23 358 235 216 227 258 303 344 294 254 282 260 229 218 216 213 210 210 195 172 208 224 238 260 234 190 194 220 228 244 259 264 257 251 255 259 262 266 268 263
340 336 347 342 343 354 6 13 6 356 343 341 325 314 343 348 350 355 354 1 1 345 335 25 22 12 5 358 355 16 8 12 43 45 43 30 19 343 338 344 18 14 11 8 1 353 135 59 44 36 22 5 333 313 310 313 277 266 284 283 271 250 228 221 222 203 146 180 232 222 213 244 241 213 216 227 224 234 246 254 258 259 261 261 259 260 262 260
343 326 334 340 335 336 339 339 340 336 330 332 323 306 339 349 353 356 356 341 347 352 347 18 20 7 351 350 348 356 6 26 50 29 22 19 9 349 355 32 36 14 12 10 7 9 319 38 46 11 349 338 317 307 306 292 266 261 269 269 271 274 255 240 235 212 177 207 240 212 182 223 236 227 233 237 230 241 248 255 265 271 271 266 259 255 260 272
336 319 319 327 322 313 309 310 317 322 325 325 320 331 340 344 345 350 355 328 328 0 19 16 10 356 340 342 352 3 10 17 20 23 18 5 355 351 358 23 35 15 10 5 13 10 319 8 36 351 328 324 316 311 315 312 285 276 270 266 268 268 264 258 251 242 231 235 247 236 204 216 228 228 233 237 239 247 260 271 273 272 270 271 278 284 292 296
335 327 316 314 313 309 305 309 315 319 326 322 319 349 344 336 338 342 338 310 284 336 21 9 354 345 332 332 343 355 7 4 347 345 354 347 346 2 4 6 18 7 2 2 8 1 343 4 21 350 322 310 316 319 319 317 307 291 274 262 260 260 258 253 245 246 249 246 250 252 241 228 229 238 246 246 245 248 257 264 264 265 271 277 283 286 287 287
331 327 317 306 308 313 311 318 323 314 318 325 329 347 340 330 335 335 325 296 254 277 9 355 335 333 328 325 330 330 344 345 321 304 310 303 295 311 320 321 337 346 357 2 350 348 340 325 5 350 307 292 324 333 325 323 314 289 266 255 250 245 248 250 241 235 236 236 241 246 248 251 249 254 263 262 256 249 247 251 259 265 268 270 272 273 274 277
328 322 316 303 299 312 311 315 320 309 316 334 331 331 324 318 329 334 331 317 280 311 342 334 319 321 322 318 325 328 327 321 305 296 292 275 269 277 276 276 288 293 304 326 325 324 309 299 328 327 290 289 319 327 327 325 307 274 256 252 248 245 249 253 246 238 232 230 235 239 241 249 238 230 244 251 247 242 242 246 253 259 261 260 259 262 265 270